User: anonymous   Login
Location: Newark
(35.0033°N, 81.0878°W)
Time: 09:22:58
(UTC+00:00)
Language:

SRMSAT - Orbit

View from above orbital plane
View from above orbital plane
View from above satellite
View from above satellite

Ground track
Ground track

The orbit data is extracted from the following two-line orbital elements,

1 37841U 11058D   19290.68620359  .00000284  00000-0  10702-4 0  9996
2 37841  19.9734  20.3240 0011952  85.4932  39.4387 14.10641052413790
Epoch (UTC): 17 October 2019 16:28:07
Eccentricity: 0.0011952
inclination: 19.9734°
perigee height: 848 km
apogee height: 866 km
right ascension of ascending node: 20.3240°
argument of perigee: 85.4932°
revolutions per day: 14.10641052
mean anomaly at epoch: 39.4387°
orbit number at epoch: 41379

The dashed part of the orbit path shows where the satellite is in the earth's shadow,  

DLR